| time (UTC) | temp F | wind direction | speed MPH | gust MPH | rain 1hr in | rain 24hr in | rain mn in | humidity % | barometer mb |
| 20260504000034 | 67 | 340 | 0.0 | 1.0 | 0.00 | 0.00 | 0.00 | 48 | 1016.6 |
| 20260503234536 | 68 | 340 | 0.0 | 1.0 | 0.00 | 0.00 | 0.00 | 47 | 1016.6 |
| 20260503233033 | 69 | 340 | 0.0 | 2.0 | 0.00 | 0.00 | 0.00 | 45 | 1016.5 |
| 20260503231533 | 70 | 92 | 0.0 | 1.0 | 0.00 | 0.00 | 0.00 | 44 | 1016.5 |
| 20260503230036 | 70 | 319 | 0.0 | 2.0 | 0.00 | 0.00 | 0.00 | 42 | 1016.6 |
| 20260503224529 | 70 | 138 | 0.0 | 4.0 | 0.00 | 0.00 | 0.00 | 41 | 1016.7 |
| 20260503223028 | 71 | 316 | 1.0 | 8.0 | 0.00 | 0.00 | 0.00 | 40 | 1016.8 |
| 20260503221532 | 71 | 311 | 0.0 | 4.0 | 0.00 | 0.00 | 0.00 | 38 | 1016.7 |
| 20260503220033 | 71 | 343 | 0.0 | 5.0 | 0.00 | 0.00 | 0.00 | 36 | 1016.7 |
| 20260503214533 | 71 | 240 | 0.0 | 3.0 | 0.00 | 0.00 | 0.00 | 38 | 1016.7 |
| 20260503213031 | 71 | 291 | 1.0 | 4.0 | 0.00 | 0.00 | 0.00 | 38 | 1016.9 |
| 20260503211522 | 71 | 173 | 1.0 | 3.0 | 0.00 | 0.00 | 0.00 | 37 | 1016.8 |
| 20260503210021 | 71 | 263 | 1.0 | 6.0 | 0.00 | 0.00 | 0.00 | 36 | 1016.9 |
| 20260503204526 | 71 | 336 | 2.0 | 8.0 | 0.00 | 0.00 | 0.00 | 37 | 1016.9 |
| 20260503203019 | 71 | 290 | 1.0 | 5.0 | 0.00 | 0.00 | 0.00 | 36 | 1017.0 |
| 20260503201519 | 71 | 205 | 1.0 | 3.0 | 0.00 | 0.00 | 0.00 | 36 | 1017.2 |
| 20260503200018 | 72 | 9 | 2.0 | 5.0 | 0.00 | 0.01 | 0.00 | 37 | 1017.3 |
| 20260503194520 | 73 | 157 | 3.0 | 6.0 | 0.00 | 0.01 | 0.00 | 34 | 1017.5 |
| 20260503193018 | 75 | 271 | 0.0 | 3.0 | 0.00 | 0.01 | 0.00 | 36 | 1017.8 |
| 20260503191517 | 75 | 174 | 1.0 | 5.0 | 0.00 | 0.01 | 0.00 | 35 | 1018.3 |
| 20260503190026 | 75 | 256 | 1.0 | 6.0 | 0.00 | 0.01 | 0.00 | 36 | 1018.4 |
| 20260503184515 | 74 | 136 | 1.0 | 6.0 | 0.00 | 0.01 | 0.00 | 35 | 1018.8 |
| 20260503183014 | 75 | 158 | 1.0 | 9.0 | 0.00 | 0.01 | 0.00 | 33 | 1019.0 |
| 20260503181531 | 75 | 163 | 5.0 | 12.0 | 0.00 | 0.01 | 0.00 | 35 | 1019.2 |
| 20260503180024 | 75 | 225 | 1.0 | 6.0 | 0.00 | 0.01 | 0.00 | 37 | 1019.5 |
| 20260503174510 | 74 | 218 | 1.0 | 4.0 | 0.00 | 0.01 | 0.00 | 41 | 1019.4 |
| 20260503173010 | 73 | 290 | 1.0 | 10.0 | 0.00 | 0.01 | 0.00 | 38 | 1019.5 |
| 20260503171520 | 74 | 123 | 2.0 | 7.0 | 0.00 | 0.01 | 0.00 | 37 | 1019.5 |
| 20260503120110 | 49 | 23 | 0.0 | 1.0 | 0.00 | 0.23 | 0.00 | 92 | 1019.7 |
| 20260503081527 | 47 | 266 | 0.0 | 0.0 | 0.00 | 0.45 | 0.00 | 90 | 1016.9 |
| 20260503071520 | 48 | 266 | 0.0 | 0.0 | 0.00 | 0.53 | 0.00 | 90 | 1016.9 |
| 20260503054515 | 50 | 266 | 0.0 | 0.0 | 0.00 | 0.57 | 0.00 | 90 | 1016.5 |
| 20260503053016 | 50 | 266 | 0.0 | 0.0 | 0.00 | 0.57 | 0.00 | 90 | 1016.5 |
| 20260503051508 | 51 | 266 | 0.0 | 0.0 | 0.00 | 0.57 | 0.00 | 90 | 1016.5 |
| 20260503050008 | 51 | 266 | 0.0 | 0.0 | 0.00 | 0.57 | 0.00 | 90 | 1016.4 |
| 20260503044506 | 52 | 266 | 0.0 | 0.0 | 0.00 | 0.57 | 0.00 | 90 | 1016.4 |
| 20260503043003 | 52 | 266 | 0.0 | 1.0 | 0.00 | 0.57 | 0.00 | 90 | 1016.2 |
| 20260503041613 | 53 | 266 | 0.0 | 2.0 | 0.00 | 0.57 | 0.00 | 90 | 1016.0 |
| 20260503040057 | 53 | 237 | 0.0 | 0.0 | 0.00 | 0.57 | 0.00 | 91 | 1016.0 |
| 20260503034557 | 53 | 237 | 0.0 | 1.0 | 0.00 | 0.57 | 0.57 | 91 | 1015.8 |
| 20260503033115 | 53 | 237 | 0.0 | 1.0 | 0.00 | 0.57 | 0.57 | 91 | 1016.0 |
| 20260503031555 | 53 | 237 | 0.0 | 1.0 | 0.00 | 0.57 | 0.57 | 90 | 1016.3 |
| 20260503030100 | 53 | 237 | 0.0 | 1.0 | 0.00 | 0.57 | 0.57 | 90 | 1016.2 |
| 20260503024600 | 53 | 11 | 0.0 | 2.0 | 0.00 | 0.57 | 0.57 | 90 | 1016.0 |
| 20260503023053 | 53 | 336 | 0.0 | 0.0 | 0.00 | 0.57 | 0.57 | 90 | 1015.5 |
| 20260503021551 | 53 | 321 | 0.0 | 0.0 | 0.00 | 0.57 | 0.57 | 89 | 1015.1 |
| 20260503020053 | 53 | 85 | 0.0 | 0.0 | 0.00 | 0.57 | 0.57 | 89 | 1014.6 |
| 20260503014549 | 54 | 84 | 0.0 | 0.0 | 0.00 | 0.57 | 0.57 | 88 | 1014.4 |
| 20260503013041 | 54 | 84 | 0.0 | 0.0 | 0.00 | 0.57 | 0.57 | 88 | 1014.3 |
| 20260503011538 | 54 | 84 | 0.0 | 0.0 | 0.00 | 0.57 | 0.57 | 87 | 1013.9 |
| 20260503010036 | 54 | 84 | 0.0 | 0.0 | 0.00 | 0.57 | 0.57 | 86 | 1013.7 |
| 20260503004535 | 55 | 84 | 0.0 | 0.0 | 0.00 | 0.57 | 0.57 | 86 | 1013.5 |
| 20260503003033 | 55 | 84 | 0.0 | 0.0 | 0.00 | 0.57 | 0.57 | 85 | 1013.4 |
| 20260503001533 | 56 | 84 | 0.0 | 0.0 | 0.00 | 0.57 | 0.57 | 85 | 1013.2 |